This demonstration page uses our WeatherBlox Daily Observations layout. Learn more.

Left ArrowRight Arrow

Hourly Observations for December 21, 2019

Temp ( °F °C ) Dew Point ( °F °C ) Humidity (%) Winds ( mph kmh ) Pressure ( in mb ) Visibility ( mi km ) Precip ( " mm )
12:56 am 00:56 Clear 27 -3 21 -6 80 80 VRB 5 7 30.32 1027 10 16 0.00 0.00
1:56 am 01:56 Clear 25 -4 21 -6 86 86 VRB 5 7 30.32 1027 10 16 0.00 0.00
2:56 am 02:56 Clear 27 -3 21 -6 80 80 VRB 5 7 30.32 1027 10 16 0.00 0.00
3:56 am 03:56 Clear 27 -3 21 -6 80 80 VRB 5 7 30.31 1026 10 16 0.00 0.00
4:56 am 04:56 Clear 25 -4 19 -7 80 80 VRB 5 7 30.31 1027 10 16 0.00 0.00
5:56 am 05:56 Clear 23 -5 21 -6 93 93 VRB 5 7 30.32 1027 10 16 0.00 0.00
6:56 am 06:56 Clear 25 -4 23 -5 93 93 Calm 30.33 1027 10 16 0.00 0.00
7:56 am 07:56 Sunny 25 -4 23 -5 93 93 Calm 30.35 1028 10 16 0.00 0.00
8:56 am 08:56 Sunny 28 -2 23 -5 80 80 Calm 30.33 1027 10 16 0.00 0.00
9:56 am 09:56 Sunny 32 0 25 -4 75 75 SE 3 6 30.34 1027 10 16 0.00 0.00
10:56 am 10:56 Sunny 37 3 27 -3 65 65 SSE 7 11 30.32 1027 10 16 0.00 0.00
11:56 am 11:56 Sunny 41 5 28 -2 61 61 SE 8 13 30.28 1026 10 16 0.00 0.00
12:56 pm 12:56 Sunny 45 7 27 -3 49 49 S 12 19 30.24 1024 10 16 0.00 0.00
1:56 pm 13:56 Sunny 48 9 27 -3 43 43 S 8 13 30.23 1024 10 16 0.00 0.00
2:56 pm 14:56 Sunny 50 10 27 -3 40 40 S 8 13 30.19 1022 10 16 0.00 0.00
3:56 pm 15:56 Mostly Sunny 46 8 30 -1 53 53 SE 9 15 30.22 1023 10 16 0.00 0.00
4:56 pm 16:56 Mostly Sunny 45 7 28 -2 53 53 SE 7 11 30.22 1023 10 16 0.00 0.00
5:56 pm 17:56 Partly Cloudy 41 5 28 -2 61 61 ESE 6 9 30.22 1024 10 16 0.00 0.00
6:56 pm 18:56 Partly Cloudy 41 5 27 -3 57 57 ESE 5 7 30.23 1024 10 16 0.00 0.00
7:56 pm 19:56 Partly Cloudy 39 4 28 -2 65 65 SSE 9 15 30.23 1024 10 16 0.00 0.00
8:56 pm 20:56 Partly Cloudy 37 3 30 -1 75 75 SSE 7 11 30.24 1024 10 16 0.00 0.00
9:56 pm 21:56 Partly Cloudy 37 3 28 -2 70 70 SSE 7 11 30.23 1024 10 16 0.00 0.00
10:56 pm 22:56 Partly Cloudy 36 2 28 -2 75 75 S 9 15 30.23 1024 10 16 0.00 0.00
11:56 pm 23:56 Clear 36 2 28 -2 75 75 ESE 3 6 30.22 1023 10 16 0.00 0.00

Powered by AerisWeather